Location: Unspecified
(0.0000°N, 0.0000°E)
Time: 17:33:04
(UTC+00:00)

deb Briz - Pass Details

Date: 14 February 2026
Orbit: 1949 x 2166 km, 64.8° (Epoch: 6 March)

Event Time Altitude Azimuth Distance (km) Brightness Sun altitude
Rises 19:58:37 0° 237° (WSW) 5,413 ? -25.4°
Reaches altitude 10° 20:03:32 10° 254° (WSW) 4,386 ? -26.6°
Maximum altitude 20:10:21 18° 293° (WNW) 3,730 ? -28.3°
Drops below altitude 10° 20:17:12 10° 332° (NNW) 4,353 ? -29.9°
Sets 20:22:11 0° 350° (N) 5,358 ? -31.1°
